Weather Roundup
Issued by NWS

Home | Current Version | Previous Version | Graphics & Text | Print | Product List | Glossary Off
Versions: 1 2 3 4 5 6 7 8 9 10 11 12 13 14 15 16 17 18 19 20 21 22 23 24 25 26 27 28 29 30 31 32 33 34 35 36 37 38 39 40 41 42 43 44 45 46 47 48 49 50

000
NZUS93 KARX 030110
HRRWXR

CURRENT HOURLY OBSERVATIONS ACROSS
MUCH OF THE UPPER MISSISSIPPI VALLEY
NATIONAL WEATHER SERVICE LA CROSSE WI
800 PM CDT SAT MAY 02 2015


...SOUTHEAST MINNESOTA...


CITY           SKY/WX    TMP DP  RH WIND       PRES   REMARKS
ROCHESTER      CLEAR     70  48  45 S17       29.82S
ROCHESTER/MAYO FAIR      72  47  41 S15G23    29.81R
WINONA         CLEAR     73  46  38 S7G16     29.81R
AUSTIN         CLEAR     68  50  52 S14       29.82S
ALBERT LEA     PTCLDY    73  48  40 S12G17    29.80S
DODGE CENTER   CLEAR     72  48  43 S17G24    29.81R
PRESTON        CLEAR     68  49  50 S16       29.85R
OWATONNA       CLEAR     73  45  35 S15       29.78S
FARIBAULT      PTCLDY    75  48  38 S16G22    29.77R
$$

...ELSEWHERE IN MINNESOTA...


CITY           SKY/WX    TMP DP  RH WIND       PRES   REMARKS
MINNEAPOLIS    PTCLDY    75  44  33 SE7       29.72F
INTNL FALLS    MOCLDY    73  35  25 SW9       29.63S
DULUTH         PTCLDY    62  44  51 SE8       29.74S
RED WING       PTCLDY    75  41  29 SW6       29.75S
REDWOOD FALLS  CLEAR     78  45  30 S21G30    29.69S
MANKATO        CLOUDY    73  48  40 S9        29.76S
WORTHINGTON    CLEAR     72  52  49 S16       29.77S
FAIRMONT       CLEAR     72  45  37 S17       29.78R
$$

...SOUTHWEST WISCONSIN...


CITY           SKY/WX    TMP DP  RH WIND       PRES   REMARKS
LA CROSSE      CLEAR     74  48  39 S17G24    29.82S
PRAIRIE DU CHI PTCLDY    68  46  44 S5        29.88S
BOSCOBEL       MOCLDY    72  47  40 SW9       29.89R
LONE ROCK      MOCLDY    72  43  35 S9        29.89S
PLATTEVILLE    MOCLDY    68  49  50 SW13      29.92S
FORT MC COY    CLEAR     71  46  39 S8        29.85S
CAMP DOUGLAS   CLEAR     72  42  34 SW8       29.85S
VIROQUA        FAIR      68  47  47 SW15G22   29.88S
WIS DELLS      NOT AVBL
$$

...ELSEWHERE IN WISCONSIN...


CITY           SKY/WX    TMP DP  RH WIND       PRES   REMARKS
MILWAUKEE      MOCLDY    64  36  35 S10       29.92S
MADISON        MOCLDY    72  41  32 SW7       29.90S
GREEN BAY      PTCLDY    72  44  36 S8        29.86S
EAU CLAIRE     MOCLDY    74  45  35 S10       29.77F
BLACK RVR FLS  FAIR      73  43  34 S8        29.82S
MEDFORD        PTCLDY    69  43  39 S8        29.83S
WAUSAU         CLEAR     70  42  36 SW8       29.83S
WIS RAPIDS     CLEAR     71  38  29 SW7       29.86S
MARSHFIELD     CLEAR     70  41  34 S10       29.84S
RICE LAKE      CLEAR     71  39  31 S9        29.78F
$$

...NORTHEAST IOWA...


CITY           SKY/WX    TMP DP  RH WIND       PRES   REMARKS
DECORAH        CLEAR     68  50  52 S8G14     29.87R
MASON CITY     CLEAR     68  51  54 S20G28    29.85S
CHARLES CITY   CLEAR     68  50  52 S12       29.87R
OELWEIN        CLEAR     66  50  55 S13       29.90S
$$

...ELSEWHERE IN IOWA...


CITY           SKY/WX    TMP DP  RH WIND       PRES   REMARKS
DES MOINES     PTCLDY    63  54  72 S13       29.88F
IOWA CITY      MOCLDY    64  53  67 S7        29.94F
FORT DODGE     CLEAR     66  48  52 S15G21    29.86R
$$

...NORTHERN ILLINOIS...


CITY           SKY/WX    TMP DP  RH WIND       PRES   REMARKS
CHICAGO-OHARE  MOCLDY    71  35  26 SW6       29.94S
CHICAGO-MIDWAY MOCLDY    73  34  23 S9        29.96R
MOLINE         CLOUDY    68  47  46 S3        29.94F
ROCKFORD       MOCLDY    69  38  32 S7        29.95S
PEORIA         CLOUDY    71  42  35 SW3       29.97S
$$

NOTE: "FAIR" INDICATES FEW OR NO CLOUDS BELOW 12,000 FEET WITH NO
SIGNIFICANT WEATHER AND/OR OBSTRUCTIONS TO VISIBILITY. WIND
SPEEDS ARE IN MILES-PER-HOUR.



USA.gov is the U.S. government's official web portal to all federal, state and local government web resources and services.